Regional Weather Roundup
Issued by NWS

Home | Current Version | Previous Version | Graphics & Text | Print | Product List | Glossary On
Versions: 1 2 3 4 5 6 7 8 9 10 11 12 13 14 15 16 17 18 19 20 21 22 23 24 25 26 27 28 29 30 31 32 33 34 35 36 37 38 39 40 41 42 43 44 45 46 47 48 49 50
000
ASUS45 KABQ 030210
RWRNM
NEW MEXICO REGIONAL WEATHER ROUNDUP
NATIONAL WEATHER SERVICE ALBUQUERQUE NM
800 PM MDT WED SEP 02 2015

NOTE: "FAIR" MEANS FEW OR NO CLOUDS BELOW 12,000 FEET AGL WITH NO
       SIGNIFICANT WEATHER OR OBSTRUCTIONS TO VISION.

      THIS PRODUCT IS RELEASED AS TWO VERSIONS.  ONE VERSION NEAR
      THE TOP OF THE HOUR CONTAINING PRELIMINARY DATA FROM ALBUQUERQUE
      AND OTHER STATIONS.  A FINAL VERSION WITH ADDITIONAL DATA IS
      ISSUED ABOUT 10 MINUTES AFTER THE HOUR.

NMZ501-503-504-510>518-030300-
NORTHWEST PLATEAU/NORTHCENTRAL MOUNTAINS

CITY           SKY/WX    TMP DP  RH WIND       PRES   REMARKS
FARMINGTON     CLEAR     74  51  44 SW5       30.12R
LOS ALAMOS     MOCLDY    70  44  39 SW29G40   30.27R
SANTA FE       CLOUDY    71  45  39 W17G26    30.19R
TAOS           MOCLDY    72  37  28 SW7       30.24R
ANGEL FIRE     CLOUDY    64  44  47 CALM      30.33R

$$
NMZ402-403-502-505>509-030300-
WESTCENTRAL MOUNTAINS/SOUTHWEST MOUNTAINS

CITY           SKY/WX    TMP DP  RH WIND       PRES   REMARKS
GALLUP         CLOUDY    66  48  52 NW8       30.26R
GRANTS         CLOUDY    61  56  83 S3        30.27R
SILVER CITY    LGT RAIN  63  57  82 NW10      30.24F

$$
NMZ407-409-411-412-030300-
SOUTHERN DESERTS

CITY           SKY/WX    TMP DP  RH WIND       PRES   REMARKS
LORDSBURG      LGT RAIN  68  55  64 CALM      30.16R
DEMING         LGT RAIN  69  56  62 N17G29    30.08F
LAS CRUCES     CLOUDY    77  46  33 W24G38    30.11R
HOLLOMAN AFB   MOCLDY    87  45  23 N12       29.99R
ALAMOGORDO     MOCLDY    86  45  23 W7        30.01R
T OR C         LGT RAIN  72  59  63 W12       30.14R

$$
NMZ519>523-030300-
CENTRAL VALLEYS/CENTRAL HIGHLANDS

CITY           SKY/WX    TMP DP  RH WIND       PRES   REMARKS
ALBUQUERQUE    CLOUDY    79  45  29 NE9       30.15R
DOUBLE EAGLE   MOCLDY    68  52  56 W12G23    30.17F
MORIARTY ARPT  FAIR      71  41  32 NW14      30.19R
CLINES CORNERS MOCLDY    68  45  43 NW15      30.23R
BELEN          MOCLDY    69  55  61 NW8       30.14R
SOCORRO        FAIR      80  44  28 NW9G23    30.11R

$$
NMZ524>526-539-540-030300-
SOUTHCENTRAL MOUNTAINS

CITY           SKY/WX    TMP DP  RH WIND       PRES   REMARKS
RUIDOSO        PTCLDY    70  43  37 SE9       30.25R

$$
NMZ527>531-030300-
NORTHEAST HIGHLANDS/NORTHEAST PLAINS

CITY           SKY/WX    TMP DP  RH WIND       PRES   REMARKS
LAS VEGAS      MOCLDY    68  46  45 NW8       30.20S
RATON          LGT RAIN  65  54  67 NE12      30.16F
CLAYTON        MOCLDY    76  55  48 NW8       30.02R

$$
NMZ532>537-030300-
EASTCENTRAL PLAINS

CITY           SKY/WX    TMP DP  RH WIND       PRES   REMARKS
TUCUMCARI      PTCLDY    82  50  32 SW10      29.95R
CANNON AFB     PTCLDY    81  49  32 S13       30.03R
CLOVIS AIRPORT PTCLDY    81  48  32 S13       30.04R

$$
NMZ028-029-538-030300-
SOUTHEAST PLAINS

CITY           SKY/WX    TMP DP  RH WIND       PRES   REMARKS
ROSWELL        MOCLDY    86  47  25 S10       29.98R
ARTESIA        MOCLDY    86  50  28 SE14      29.99R
CARLSBAD       MOCLDY    88  50  27 SE14      29.96R
HOBBS          MOCLDY    81  52  36 SE8       30.03R


$$


USA.gov is the U.S. government's official web portal to all federal, state and local government web resources and services.